Weather History for KMWC - February, 2014

Change the Weather History Date:

Saturday, February 22, 2014

  Actual Average Record
Temperature  
Mean Temperature 22 °F -  
Max Temperature 28 °F 36 °F 61 °F (1984)
Min Temperature 17 °F 22 °F -7 °F (1963)
Degree Days  
Heating Degree Days 42    
Moisture  
Dew Point 9 °F    
Average Humidity 60    
Maximum Humidity 68    
Minimum Humidity 47    
Precipitation  
Precipitation 0.00 in - - ()
Sea Level Pressure  
Sea Level Pressure 29.88 in    
Wind  
Wind Speed 17 mph (WSW)    
Max Wind Speed 21 mph    
Max Gust Speed 29 mph    
Visibility 10 miles    
Events      
Averages and records for this station are not official NWS values.
T = Trace of Precipitation, MM = Missing Value Source: NWS Daily Summary

Daily Weather History Graph

Daily Weather History Graph

Search for Another Location

Airport or City:

Trip Planner

Search our weather history database for the weather conditions in past years. The results will help you decide how hot, cold, wet, or windy it might be!

Date:

Astronomy

Feb. 22, 2014 Rise Set
Actual Time 6:39 AM CST 5:32 PM CST
Civil Twilight 6:10 AM CST 6:01 PM CST
Nautical Twilight 5:37 AM CST 6:34 PM CST
Astronomical Twilight 5:04 AM CST 7:07 PM CST
Moon 12:38 AM CST (2/22) 10:39 AM CST (2/22)
Length of Visible Light 11h 50m
Length of Day
10h 53m
Waning Gibbous, 50% of the Moon is Illuminated
Feb 22
Waning Gibbous
Mar 1
New
Mar 8
First Quarter
Mar 16
Full
Mar 23
Last Quarter

Hourly Weather History & Observations

Time (CST) Temp. Windchill Dew Point Humidity Pressure Visibility Wind Dir Wind Speed Gust Speed Precip Events Conditions
12:15 AM 21.2 °F 6.0 °F 8.6 °F 58% 29.73 in 10.0 mi West 19.6 mph 24.2 mph N/A   Clear
12:35 AM 21.2 °F 7.3 °F 8.6 °F 58% 29.73 in 10.0 mi WSW 16.1 mph 25.3 mph N/A   Clear
12:55 AM 19.4 °F 3.6 °F 8.6 °F 63% 29.73 in 10.0 mi WSW 19.6 mph 28.8 mph N/A   Clear
1:15 AM 19.4 °F 4.1 °F 8.6 °F 63% 29.73 in 10.0 mi WSW 18.4 mph 25.3 mph N/A   Clear
1:35 AM 19.4 °F 5.0 °F 8.6 °F 63% 29.73 in 10.0 mi West 16.1 mph 26.5 mph N/A   Clear
1:55 AM 19.4 °F 3.2 °F 8.6 °F 63% 29.74 in 10.0 mi West 20.7 mph 26.5 mph N/A   Clear
2:15 AM 19.4 °F 4.1 °F 8.6 °F 63% 29.74 in 10.0 mi WSW 18.4 mph 27.6 mph N/A   Clear
2:35 AM 19.4 °F 4.1 °F 8.6 °F 63% 29.74 in 10.0 mi West 18.4 mph - N/A   Clear
2:55 AM 19.4 °F 5.5 °F 8.6 °F 63% 29.75 in 10.0 mi West 15.0 mph 25.3 mph N/A   Clear
3:15 AM 19.4 °F 4.5 °F 8.6 °F 63% 29.76 in 10.0 mi West 17.3 mph 25.3 mph N/A   Clear
3:35 AM 19.4 °F 4.1 °F 8.6 °F 63% 29.77 in 10.0 mi West 18.4 mph 24.2 mph N/A   Clear
3:55 AM 19.4 °F 4.5 °F 8.6 °F 63% 29.78 in 10.0 mi West 17.3 mph 26.5 mph N/A   Clear
4:15 AM 19.4 °F 6.0 °F 8.6 °F 63% 29.78 in 10.0 mi West 13.8 mph 23.0 mph N/A   Clear
4:35 AM 19.4 °F 5.0 °F 8.6 °F 63% 29.80 in 10.0 mi West 16.1 mph 20.7 mph N/A   Clear
4:55 AM 19.4 °F 4.1 °F 8.6 °F 63% 29.81 in 10.0 mi West 18.4 mph 25.3 mph N/A   Clear
5:15 AM 19.4 °F 4.5 °F 8.6 °F 63% 29.82 in 10.0 mi West 17.3 mph 21.9 mph N/A   Clear
5:35 AM 17.6 °F 4.3 °F 8.6 °F 68% 29.82 in 10.0 mi West 12.7 mph 24.2 mph N/A   Clear
5:55 AM 17.6 °F 3.7 °F 8.6 °F 68% 29.82 in 10.0 mi West 13.8 mph - N/A   Clear
6:15 AM 17.6 °F 3.2 °F 6.8 °F 63% 29.83 in 10.0 mi West 15.0 mph 23.0 mph N/A   Clear
6:35 AM 17.6 °F 3.7 °F 6.8 °F 63% 29.85 in 10.0 mi WSW 13.8 mph 21.9 mph N/A   Clear
6:45 AM 17.6 °F 2.7 °F 6.8 °F 63% 29.85 in 10.0 mi WSW 16.1 mph 23.0 mph N/A   Clear
7:45 AM 17.6 °F 3.7 °F 6.8 °F 63% 29.88 in 10.0 mi West 13.8 mph 20.7 mph N/A   Clear
8:45 AM 19.4 °F 4.5 °F 6.8 °F 58% 29.91 in 10.0 mi West 17.3 mph 23.0 mph N/A   Clear
9:45 AM 23.0 °F 9.2 °F 8.6 °F 54% 29.92 in 10.0 mi West 17.3 mph 24.2 mph N/A   Clear
10:45 AM 24.8 °F 11.1 °F 8.6 °F 50% 29.93 in 10.0 mi WSW 18.4 mph 25.3 mph N/A   Clear
11:45 AM 26.6 °F 13.4 °F 10.4 °F 51% 29.94 in 10.0 mi West 18.4 mph 25.3 mph N/A   Clear
12:45 PM 26.6 °F 13.8 °F 10.4 °F 51% 29.93 in 10.0 mi WSW 17.3 mph 23.0 mph N/A   Clear
1:45 PM 28.4 °F 15.1 °F 10.4 °F 47% 29.91 in 10.0 mi WSW 20.7 mph - N/A   Clear
2:45 PM 28.4 °F 16.6 °F 10.4 °F 47% 29.91 in 10.0 mi West 16.1 mph 19.6 mph N/A   Clear
3:45 PM 28.4 °F 16.6 °F 10.4 °F 47% 29.91 in 10.0 mi West 16.1 mph 23.0 mph N/A   Clear
4:45 PM 28.4 °F 17.5 °F 10.4 °F 47% 29.92 in 10.0 mi WSW 13.8 mph 23.0 mph N/A   Clear
5:45 PM 26.6 °F 15.2 °F 10.4 °F 51% 29.94 in 10.0 mi WSW 13.8 mph 23.0 mph N/A   Clear
6:45 PM 24.8 °F 12.9 °F 10.4 °F 54% 29.96 in 10.0 mi WSW 13.8 mph - N/A   Clear
7:45 PM 23.0 °F 9.6 °F 8.6 °F 54% 29.98 in 10.0 mi WSW 16.1 mph - N/A   Clear
8:15 PM 23.0 °F 10.6 °F 10.4 °F 59% 29.99 in 10.0 mi West 13.8 mph 18.4 mph N/A   Clear
8:35 PM 23.0 °F 11.1 °F 10.4 °F 59% 29.99 in 10.0 mi West 12.7 mph 17.3 mph N/A   Clear
8:45 PM 21.2 °F 9.5 °F 8.6 °F 58% 30.00 in 10.0 mi WSW 11.5 mph - N/A   Clear
8:55 PM 21.2 °F 9.5 °F 10.4 °F 63% 30.00 in 10.0 mi West 11.5 mph 17.3 mph N/A   Clear
9:15 PM 21.2 °F 8.3 °F 10.4 °F 63% 30.00 in 10.0 mi West 13.8 mph - N/A   Clear
9:35 PM 21.2 °F 7.3 °F 8.6 °F 58% 30.01 in 10.0 mi West 16.1 mph - N/A   Clear
9:55 PM 21.2 °F 8.9 °F 8.6 °F 58% 30.02 in 10.0 mi West 12.7 mph 20.7 mph N/A   Clear
10:15 PM 19.4 °F 6.0 °F 8.6 °F 63% 30.02 in 10.0 mi West 13.8 mph 18.4 mph N/A   Clear
10:35 PM 19.4 °F 7.2 °F 8.6 °F 63% 30.02 in 10.0 mi West 11.5 mph 18.4 mph N/A   Clear
10:55 PM 19.4 °F 6.6 °F 8.6 °F 63% 30.02 in 10.0 mi West 12.7 mph - N/A   Clear
11:15 PM 19.4 °F 5.5 °F 8.6 °F 63% 30.03 in 10.0 mi West 15.0 mph 18.4 mph N/A   Clear
11:35 PM 17.6 °F 3.2 °F 8.6 °F 68% 30.03 in 10.0 mi West 15.0 mph - N/A   Clear
11:55 PM 17.6 °F 3.2 °F 6.8 °F 63% 30.03 in 10.0 mi West 15.0 mph - N/A   Clear